| time (UTC) | temp F | wind direction | speed MPH | gust MPH | rain 1hr in | rain 24hr in | rain mn in | humidity % | barometer mb |
| 20260510195504 | 84 | 312 | 3.0 | 6.0 | 0.00 | 0.00 | 0.00 | 42 | 1014.3 |
| 20260510195004 | 84 | 302 | 1.0 | 6.0 | 0.00 | 0.00 | 0.00 | 43 | 1014.3 |
| 20260510194004 | 83 | 228 | 2.0 | 6.0 | 0.00 | 0.00 | 0.00 | 43 | 1014.5 |
| 20260510193004 | 84 | 0 | 3.0 | 7.0 | 0.00 | 0.00 | 0.00 | 46 | 1014.5 |
| 20260510192504 | 83 | 298 | 5.0 | 6.0 | 0.00 | 0.00 | 0.00 | 43 | 1014.7 |
| 20260510192004 | 83 | 337 | 5.0 | 7.0 | 0.00 | 0.00 | 0.00 | 43 | 1014.7 |
| 20260510191004 | 83 | 343 | 6.0 | 10.0 | 0.00 | 0.00 | 0.00 | 44 | 1015.0 |
| 20260510190004 | 82 | 107 | 2.0 | 2.0 | 0.00 | 0.00 | 0.00 | 45 | 1015.0 |
| 20260510185504 | 82 | 274 | 2.0 | 7.0 | 0.00 | 0.00 | 0.00 | 43 | 1015.0 |
| 20260510185004 | 83 | 300 | 2.0 | 5.0 | 0.00 | 0.00 | 0.00 | 46 | 1015.0 |
| 20260510184504 | 82 | 226 | 1.0 | 3.0 | 0.00 | 0.00 | 0.00 | 50 | 1015.0 |
| 20260510184004 | 81 | 182 | 2.0 | 3.0 | 0.00 | 0.00 | 0.00 | 54 | 1015.0 |
| 20260510183504 | 81 | 186 | 2.0 | 3.0 | 0.00 | 0.00 | 0.00 | 53 | 1015.0 |
| 20260510183004 | 81 | 180 | 3.0 | 6.0 | 0.00 | 0.00 | 0.00 | 52 | 1015.1 |
| 20260510182504 | 81 | 182 | 5.0 | 6.0 | 0.00 | 0.00 | 0.00 | 52 | 1015.3 |
| 20260510182004 | 80 | 182 | 3.0 | 6.0 | 0.00 | 0.00 | 0.00 | 54 | 1015.3 |
| 20260510181506 | 80 | 180 | 3.0 | 6.0 | 0.00 | 0.00 | 0.00 | 52 | 1015.3 |
| 20260510181004 | 80 | 201 | 5.0 | 7.0 | 0.00 | 0.00 | 0.00 | 53 | 1015.3 |
| 20260510180504 | 81 | 192 | 5.0 | 8.0 | 0.00 | 0.00 | 0.00 | 54 | 1015.3 |
| 20260510180005 | 82 | 156 | 2.0 | 5.0 | 0.00 | 0.00 | 0.00 | 54 | 1015.3 |
| 20260510175504 | 81 | 146 | 2.0 | 7.0 | 0.00 | 0.00 | 0.00 | 51 | 1015.4 |
| 20260510175005 | 82 | 225 | 3.0 | 6.0 | 0.00 | 0.00 | 0.00 | 51 | 1015.4 |
| 20260510174504 | 82 | 283 | 2.0 | 5.0 | 0.00 | 0.00 | 0.00 | 50 | 1015.4 |
| 20260510174004 | 81 | 356 | 3.0 | 5.0 | 0.00 | 0.00 | 0.00 | 54 | 1015.4 |
| 20260510173504 | 80 | 316 | 1.0 | 6.0 | 0.00 | 0.00 | 0.00 | 55 | 1015.4 |
| 20260510173004 | 80 | 243 | 3.0 | 6.0 | 0.00 | 0.00 | 0.00 | 52 | 1015.4 |
| 20260510172505 | 81 | 227 | 4.0 | 7.0 | 0.00 | 0.00 | 0.00 | 55 | 1015.5 |
| 20260510172004 | 80 | 172 | 2.0 | 6.0 | 0.00 | 0.00 | 0.00 | 51 | 1015.5 |
| 20260510171505 | 80 | 157 | 3.0 | 7.0 | 0.00 | 0.00 | 0.00 | 57 | 1015.5 |
| 20260510171004 | 81 | 207 | 6.0 | 10.0 | 0.00 | 0.00 | 0.00 | 54 | 1015.5 |
| 20260510170004 | 80 | 196 | 3.0 | 6.0 | 0.00 | 0.00 | 0.00 | 54 | 1015.5 |
| 20260510165504 | 80 | 164 | 1.0 | 3.0 | 0.00 | 0.00 | 0.00 | 56 | 1015.6 |
| 20260510165004 | 79 | 270 | 2.0 | 3.0 | 0.00 | 0.00 | 0.00 | 56 | 1015.6 |
| 20260510163504 | 79 | 255 | 4.0 | 6.0 | 0.00 | 0.00 | 0.00 | 57 | 1015.9 |
| 20260510162504 | 79 | 237 | 3.0 | 6.0 | 0.00 | 0.00 | 0.00 | 58 | 1015.8 |
| 20260510162004 | 79 | 213 | 2.0 | 5.0 | 0.00 | 0.00 | 0.00 | 55 | 1015.8 |
| 20260510161004 | 80 | 36 | 3.0 | 7.0 | 0.00 | 0.00 | 0.00 | 54 | 1016.0 |
| 20260510155504 | 79 | 42 | 4.0 | 8.0 | 0.00 | 0.00 | 0.00 | 59 | 1016.2 |
| 20260510155004 | 78 | 89 | 3.0 | 6.0 | 0.00 | 0.00 | 0.00 | 59 | 1016.2 |
| 20260510154504 | 78 | 45 | 4.0 | 7.0 | 0.00 | 0.00 | 0.00 | 60 | 1016.2 |
| 20260510153504 | 77 | 324 | 3.0 | 7.0 | 0.00 | 0.00 | 0.00 | 59 | 1016.1 |
| 20260510153004 | 78 | 321 | 3.0 | 12.0 | 0.00 | 0.00 | 0.00 | 62 | 1016.1 |
| 20260510152504 | 78 | 1 | 5.0 | 10.0 | 0.00 | 0.00 | 0.00 | 62 | 1016.0 |
| 20260510152004 | 78 | 336 | 4.0 | 7.0 | 0.00 | 0.00 | 0.00 | 64 | 1016.0 |
| 20260510151504 | 77 | 221 | 3.0 | 7.0 | 0.00 | 0.00 | 0.00 | 68 | 1016.0 |
| 20260510151004 | 78 | 200 | 2.0 | 7.0 | 0.00 | 0.00 | 0.00 | 67 | 1016.1 |
| 20260510150505 | 77 | 211 | 3.0 | 5.0 | 0.00 | 0.00 | 0.00 | 67 | 1016.1 |
| 20260510150004 | 77 | 334 | 3.0 | 5.0 | 0.00 | 0.00 | 0.00 | 66 | 1016.1 |
| 20260510144004 | 76 | 327 | 4.0 | 6.0 | 0.00 | 0.00 | 0.00 | 70 | 1016.0 |
| 20260510143504 | 76 | 310 | 3.0 | 5.0 | 0.00 | 0.00 | 0.00 | 71 | 1016.0 |
| 20260510143004 | 76 | 293 | 3.0 | 6.0 | 0.00 | 0.00 | 0.00 | 70 | 1016.0 |
| 20260510142504 | 75 | 304 | 2.0 | 5.0 | 0.00 | 0.00 | 0.00 | 72 | 1016.1 |
| 20260510141504 | 74 | 282 | 2.0 | 6.0 | 0.00 | 0.00 | 0.00 | 72 | 1016.1 |
| 20260510140504 | 74 | 240 | 3.0 | 5.0 | 0.00 | 0.00 | 0.00 | 75 | 1016.0 |
| 20260510140004 | 74 | 308 | 2.0 | 5.0 | 0.00 | 0.00 | 0.00 | 73 | 1016.0 |
| 20260510135504 | 74 | 288 | 2.0 | 6.0 | 0.00 | 0.00 | 0.00 | 75 | 1016.0 |
| 20260510135004 | 73 | 349 | 2.0 | 6.0 | 0.00 | 0.00 | 0.00 | 75 | 1016.0 |
| 20260510134503 | 73 | 355 | 2.0 | 6.0 | 0.00 | 0.00 | 0.00 | 77 | 1015.9 |
| 20260510134004 | 72 | 294 | 3.0 | 6.0 | 0.00 | 0.00 | 0.00 | 77 | 1015.7 |
| 20260510133504 | 73 | 290 | 2.0 | 6.0 | 0.00 | 0.00 | 0.00 | 76 | 1015.7 |
| 20260510133004 | 72 | 342 | 3.0 | 5.0 | 0.00 | 0.00 | 0.00 | 76 | 1015.7 |
| 20260510132504 | 72 | 187 | 2.0 | 3.0 | 0.00 | 0.00 | 0.00 | 78 | 1015.8 |
| 20260510132004 | 72 | 279 | 3.0 | 5.0 | 0.00 | 0.00 | 0.00 | 79 | 1015.8 |
| 20260510131505 | 71 | 312 | 2.0 | 3.0 | 0.00 | 0.00 | 0.00 | 81 | 1015.7 |
| 20260510130504 | 70 | 339 | 3.0 | 7.0 | 0.00 | 0.00 | 0.00 | 85 | 1015.5 |
| 20260510130004 | 69 | 342 | 2.0 | 6.0 | 0.00 | 0.00 | 0.00 | 89 | 1015.6 |
| 20260510125505 | 68 | 319 | 2.0 | 5.0 | 0.00 | 0.00 | 0.00 | 91 | 1015.6 |
| 20260510125004 | 68 | 204 | 1.0 | 3.0 | 0.00 | 0.00 | 0.00 | 94 | 1015.6 |
| 20260510124503 | 67 | 282 | 2.0 | 3.0 | 0.00 | 0.00 | 0.00 | 95 | 1015.6 |
| 20260510123503 | 66 | 219 | 1.0 | 1.0 | 0.00 | 0.00 | 0.00 | 96 | 1015.5 |
| 20260510123004 | 66 | 295 | 2.0 | 5.0 | 0.00 | 0.00 | 0.00 | 96 | 1015.6 |
| 20260510122004 | 65 | 298 | 1.0 | 2.0 | 0.00 | 0.00 | 0.00 | 96 | 1015.6 |
| 20260510121503 | 64 | 296 | 1.0 | 1.0 | 0.00 | 0.00 | 0.00 | 96 | 1015.6 |
| 20260510121003 | 63 | 292 | 0.0 | 1.0 | 0.00 | 0.00 | 0.00 | 96 | 1015.4 |
| 20260510120504 | 63 | 273 | 0.0 | 1.0 | 0.00 | 0.00 | 0.00 | 96 | 1015.4 |
| 20260510115505 | 61 | 257 | 0.0 | 0.0 | 0.00 | 0.00 | 0.00 | 96 | 1015.1 |
| 20260510115004 | 60 | 257 | 0.0 | 0.0 | 0.00 | 0.00 | 0.00 | 96 | 1015.1 |
| 20260510114504 | 60 | 257 | 0.0 | 0.0 | 0.00 | 0.00 | 0.00 | 96 | 1015.1 |
| 20260510114004 | 60 | 257 | 0.0 | 0.0 | 0.00 | 0.00 | 0.00 | 96 | 1015.0 |
| 20260510113504 | 59 | 257 | 0.0 | 0.0 | 0.00 | 0.00 | 0.00 | 96 | 1015.0 |
| 20260510113003 | 59 | 257 | 0.0 | 0.0 | 0.00 | 0.00 | 0.00 | 96 | 1015.0 |
| 20260510112504 | 59 | 257 | 0.0 | 1.0 | 0.00 | 0.00 | 0.00 | 96 | 1015.0 |
| 20260510112008 | 59 | 257 | 0.0 | 1.0 | 0.00 | 0.00 | 0.00 | 96 | 1015.0 |
| 20260510111504 | 58 | 257 | 0.0 | 1.0 | 0.00 | 0.00 | 0.00 | 96 | 1015.0 |
| 20260510111006 | 58 | 2 | 0.0 | 1.0 | 0.00 | 0.00 | 0.00 | 96 | 1014.7 |
| 20260510110504 | 58 | 114 | 0.0 | 1.0 | 0.00 | 0.00 | 0.00 | 96 | 1014.7 |
| 20260510110005 | 58 | 46 | 0.0 | 0.0 | 0.00 | 0.00 | 0.00 | 96 | 1014.7 |
| 20260510105504 | 58 | 271 | 0.0 | 0.0 | 0.00 | 0.00 | 0.00 | 96 | 1014.5 |
| 20260510105004 | 58 | 271 | 0.0 | 2.0 | 0.00 | 0.00 | 0.00 | 96 | 1014.5 |
| 20260510104504 | 58 | 325 | 1.0 | 1.0 | 0.00 | 0.00 | 0.00 | 96 | 1014.4 |
| 20260510104004 | 57 | 325 | 0.0 | 0.0 | 0.00 | 0.00 | 0.00 | 96 | 1014.1 |
| 20260510103503 | 57 | 325 | 0.0 | 0.0 | 0.00 | 0.00 | 0.00 | 96 | 1014.1 |
| 20260510103004 | 57 | 325 | 0.0 | 1.0 | 0.00 | 0.00 | 0.00 | 95 | 1014.1 |
| 20260510102504 | 58 | 325 | 1.0 | 1.0 | 0.00 | 0.00 | 0.00 | 96 | 1013.9 |
| 20260510101504 | 58 | 325 | 1.0 | 1.0 | 0.00 | 0.00 | 0.00 | 96 | 1013.9 |
| 20260510100504 | 58 | 325 | 1.0 | 1.0 | 0.00 | 0.00 | 0.00 | 96 | 1013.9 |
| 20260510100004 | 57 | 325 | 1.0 | 1.0 | 0.00 | 0.00 | 0.00 | 95 | 1013.8 |
| 20260510095004 | 57 | 325 | 0.0 | 0.0 | 0.00 | 0.00 | 0.00 | 96 | 1013.7 |
| 20260510094504 | 57 | 325 | 0.0 | 1.0 | 0.00 | 0.00 | 0.00 | 95 | 1013.6 |
| 20260510094003 | 57 | 325 | 0.0 | 0.0 | 0.00 | 0.00 | 0.00 | 95 | 1013.5 |
| 20260510093503 | 57 | 325 | 0.0 | 0.0 | 0.00 | 0.00 | 0.00 | 95 | 1013.5 |
| 20260510093004 | 57 | 325 | 1.0 | 2.0 | 0.00 | 0.00 | 0.00 | 95 | 1013.5 |
| 20260510092504 | 57 | 325 | 1.0 | 2.0 | 0.00 | 0.00 | 0.00 | 95 | 1013.3 |
| 20260510092005 | 57 | 209 | 0.0 | 1.0 | 0.00 | 0.00 | 0.00 | 95 | 1013.3 |
| 20260510091503 | 57 | 209 | 1.0 | 1.0 | 0.00 | 0.00 | 0.00 | 95 | 1013.3 |
| 20260510090505 | 57 | 209 | 1.0 | 1.0 | 0.00 | 0.00 | 0.00 | 95 | 1013.1 |
| 20260510090004 | 57 | 209 | 0.0 | 0.0 | 0.00 | 0.00 | 0.00 | 95 | 1013.1 |
| 20260510085503 | 57 | 209 | 0.0 | 0.0 | 0.00 | 0.00 | 0.00 | 95 | 1013.0 |
| 20260510085004 | 57 | 209 | 0.0 | 1.0 | 0.00 | 0.00 | 0.00 | 95 | 1013.0 |
| 20260510084504 | 57 | 209 | 1.0 | 1.0 | 0.00 | 0.00 | 0.00 | 95 | 1013.0 |
| 20260510083503 | 57 | 209 | 1.0 | 1.0 | 0.00 | 0.00 | 0.00 | 95 | 1013.0 |
| 20260510083004 | 57 | 209 | 0.0 | 0.0 | 0.00 | 0.00 | 0.00 | 95 | 1013.0 |
| 20260510082503 | 57 | 209 | 0.0 | 1.0 | 0.00 | 0.00 | 0.00 | 95 | 1012.9 |
| 20260510082003 | 57 | 209 | 0.0 | 1.0 | 0.00 | 0.00 | 0.00 | 95 | 1012.9 |
| 20260510081503 | 57 | 209 | 0.0 | 0.0 | 0.00 | 0.00 | 0.00 | 95 | 1012.9 |
| 20260510081005 | 57 | 209 | 0.0 | 0.0 | 0.00 | 0.00 | 0.00 | 95 | 1012.8 |
| 20260510080504 | 57 | 209 | 0.0 | 0.0 | 0.00 | 0.00 | 0.00 | 95 | 1012.8 |
| 20260510080004 | 57 | 209 | 0.0 | 0.0 | 0.00 | 0.00 | 0.00 | 95 | 1012.8 |
| 20260510075504 | 57 | 209 | 0.0 | 0.0 | 0.00 | 0.00 | 0.00 | 95 | 1012.9 |
| 20260510075004 | 57 | 209 | 0.0 | 1.0 | 0.00 | 0.00 | 0.00 | 95 | 1012.9 |
| 20260510074504 | 57 | 209 | 0.0 | 0.0 | 0.00 | 0.00 | 0.00 | 95 | 1012.9 |
| 20260510074004 | 57 | 209 | 0.0 | 1.0 | 0.00 | 0.00 | 0.00 | 95 | 1012.9 |
| 20260510073504 | 57 | 209 | 0.0 | 0.0 | 0.00 | 0.00 | 0.00 | 95 | 1012.9 |
| 20260510073004 | 57 | 209 | 0.0 | 0.0 | 0.00 | 0.00 | 0.00 | 95 | 1012.8 |
| 20260510072004 | 57 | 209 | 0.0 | 1.0 | 0.00 | 0.00 | 0.00 | 95 | 1012.6 |
| 20260510071504 | 57 | 209 | 1.0 | 2.0 | 0.00 | 0.00 | 0.00 | 95 | 1012.7 |
| 20260510071005 | 57 | 209 | 1.0 | 1.0 | 0.00 | 0.00 | 0.00 | 95 | 1012.9 |
| 20260510070505 | 57 | 209 | 0.0 | 0.0 | 0.00 | 0.00 | 0.00 | 95 | 1012.9 |
| 20260510070005 | 57 | 209 | 0.0 | 0.0 | 0.00 | 0.00 | 0.00 | 95 | 1012.9 |
| 20260510065505 | 58 | 209 | 0.0 | 0.0 | 0.00 | 0.00 | 0.00 | 95 | 1012.8 |
| 20260510064505 | 58 | 209 | 0.0 | 1.0 | 0.00 | 0.00 | 0.00 | 95 | 1012.7 |
| 20260510064006 | 58 | 209 | 1.0 | 2.0 | 0.00 | 0.00 | 0.00 | 95 | 1012.6 |
| 20260510063505 | 58 | 209 | 0.0 | 1.0 | 0.00 | 0.00 | 0.00 | 95 | 1012.6 |
| 20260510063005 | 58 | 209 | 0.0 | 0.0 | 0.00 | 0.00 | 0.00 | 94 | 1012.6 |
| 20260510062505 | 58 | 209 | 0.0 | 0.0 | 0.00 | 0.00 | 0.00 | 94 | 1012.5 |
| 20260510062005 | 58 | 209 | 0.0 | 0.0 | 0.00 | 0.00 | 0.00 | 94 | 1012.5 |
| 20260510061505 | 58 | 209 | 0.0 | 0.0 | 0.00 | 0.00 | 0.00 | 94 | 1012.6 |
| 20260510061005 | 58 | 209 | 0.0 | 0.0 | 0.00 | 0.00 | 0.00 | 94 | 1012.9 |
| 20260510060505 | 58 | 209 | 0.0 | 0.0 | 0.00 | 0.00 | 0.00 | 94 | 1012.9 |
| 20260510060005 | 58 | 209 | 0.0 | 0.0 | 0.00 | 0.00 | 0.00 | 94 | 1012.9 |
| 20260510055505 | 58 | 209 | 0.0 | 0.0 | 0.00 | 0.00 | 0.00 | 94 | 1012.9 |
| 20260510055005 | 58 | 209 | 0.0 | 0.0 | 0.00 | 0.00 | 0.00 | 94 | 1012.9 |
| 20260510054005 | 58 | 209 | 0.0 | 0.0 | 0.00 | 0.00 | 0.00 | 94 | 1013.0 |
| 20260510053505 | 58 | 209 | 0.0 | 0.0 | 0.00 | 0.00 | 0.00 | 94 | 1013.0 |
| 20260510053005 | 58 | 209 | 0.0 | 0.0 | 0.00 | 0.00 | 0.00 | 94 | 1013.1 |
| 20260510052005 | 58 | 209 | 0.0 | 0.0 | 0.00 | 0.00 | 0.00 | 94 | 1013.2 |
| 20260510051505 | 58 | 209 | 0.0 | 0.0 | 0.00 | 0.00 | 0.00 | 94 | 1013.3 |
| 20260510051005 | 58 | 209 | 0.0 | 0.0 | 0.00 | 0.00 | 0.00 | 94 | 1013.4 |
| 20260510050505 | 59 | 209 | 0.0 | 0.0 | 0.00 | 0.00 | 0.00 | 94 | 1013.4 |
| 20260510045505 | 59 | 209 | 0.0 | 0.0 | 0.00 | 0.00 | 0.00 | 94 | 1013.4 |
| 20260510045005 | 59 | 209 | 0.0 | 0.0 | 0.00 | 0.00 | 0.00 | 94 | 1013.4 |
| 20260510044505 | 59 | 209 | 0.0 | 1.0 | 0.00 | 0.00 | 0.00 | 94 | 1013.4 |
| 20260510044005 | 59 | 209 | 0.0 | 1.0 | 0.00 | 0.00 | 0.00 | 94 | 1013.3 |
| 20260510043005 | 59 | 209 | 0.0 | 0.0 | 0.00 | 0.00 | 0.00 | 94 | 1013.3 |
| 20260510042505 | 59 | 209 | 0.0 | 0.0 | 0.00 | 0.00 | 0.00 | 94 | 1013.2 |
| 20260510042005 | 59 | 209 | 0.0 | 1.0 | 0.00 | 0.00 | 0.00 | 94 | 1013.2 |
| 20260510041505 | 59 | 209 | 0.0 | 0.0 | 0.00 | 0.00 | 0.00 | 94 | 1013.2 |
| 20260510041005 | 59 | 209 | 0.0 | 1.0 | 0.00 | 0.00 | 0.00 | 93 | 1013.0 |
| 20260510040506 | 60 | 209 | 1.0 | 1.0 | 0.00 | 0.00 | 0.00 | 93 | 1013.0 |
| 20260510040005 | 60 | 220 | 1.0 | 1.0 | 0.00 | 0.00 | 0.00 | 93 | 1013.0 |
| 20260510034505 | 60 | 255 | 0.0 | 0.0 | 0.00 | 0.00 | 0.00 | 93 | 1013.0 |
| 20260510033505 | 60 | 255 | 0.0 | 0.0 | 0.00 | 0.00 | 0.00 | 93 | 1013.0 |
| 20260510032505 | 60 | 255 | 1.0 | 1.0 | 0.00 | 0.00 | 0.00 | 93 | 1012.9 |
| 20260510032005 | 61 | 219 | 0.0 | 2.0 | 0.00 | 0.00 | 0.00 | 93 | 1012.9 |
| 20260510031505 | 61 | 251 | 1.0 | 2.0 | 0.00 | 0.00 | 0.00 | 93 | 1012.9 |
| 20260510031005 | 61 | 325 | 0.0 | 1.0 | 0.00 | 0.00 | 0.00 | 93 | 1012.8 |
| 20260510030505 | 61 | 325 | 0.0 | 1.0 | 0.00 | 0.00 | 0.00 | 93 | 1012.8 |
| 20260510030005 | 61 | 325 | 0.0 | 1.0 | 0.00 | 0.00 | 0.00 | 92 | 1012.7 |
| 20260510025505 | 61 | 325 | 0.0 | 0.0 | 0.00 | 0.00 | 0.00 | 93 | 1012.6 |
| 20260510025004 | 61 | 325 | 0.0 | 1.0 | 0.00 | 0.00 | 0.00 | 92 | 1012.6 |
| 20260510024508 | 61 | 325 | 1.0 | 1.0 | 0.00 | 0.00 | 0.00 | 92 | 1012.6 |
| 20260510023005 | 62 | 325 | 0.0 | 0.0 | 0.00 | 0.00 | 0.00 | 92 | 1012.5 |
| 20260510022505 | 62 | 325 | 0.0 | 0.0 | 0.00 | 0.00 | 0.00 | 92 | 1012.5 |
| 20260510022005 | 62 | 325 | 0.0 | 0.0 | 0.00 | 0.00 | 0.00 | 92 | 1012.5 |
| 20260510020506 | 63 | 325 | 0.0 | 0.0 | 0.00 | 0.00 | 0.00 | 91 | 1012.6 |
| 20260510020005 | 63 | 325 | 1.0 | 1.0 | 0.00 | 0.00 | 0.00 | 91 | 1012.5 |
| 20260510015505 | 63 | 325 | 0.0 | 0.0 | 0.00 | 0.00 | 0.00 | 91 | 1012.3 |
| 20260510014505 | 63 | 325 | 0.0 | 0.0 | 0.00 | 0.00 | 0.00 | 91 | 1012.3 |
| 20260510014005 | 64 | 325 | 0.0 | 0.0 | 0.00 | 0.00 | 0.00 | 91 | 1012.0 |
| 20260510013505 | 64 | 325 | 0.0 | 0.0 | 0.00 | 0.00 | 0.00 | 91 | 1012.0 |
| 20260510012505 | 64 | 325 | 1.0 | 1.0 | 0.00 | 0.00 | 0.00 | 90 | 1012.0 |
| 20260510012005 | 64 | 325 | 0.0 | 1.0 | 0.00 | 0.00 | 0.00 | 90 | 1012.0 |
| 20260510010505 | 65 | 325 | 0.0 | 2.0 | 0.00 | 0.00 | 0.00 | 89 | 1012.0 |
| 20260510010005 | 66 | 325 | 1.0 | 2.0 | 0.00 | 0.00 | 0.00 | 89 | 1012.0 |
| 20260510005505 | 66 | 325 | 0.0 | 1.0 | 0.00 | 0.00 | 0.00 | 88 | 1011.8 |
| 20260510004505 | 67 | 325 | 1.0 | 1.0 | 0.00 | 0.00 | 0.00 | 87 | 1011.8 |
| 20260510004005 | 67 | 325 | 0.0 | 1.0 | 0.00 | 0.00 | 0.00 | 87 | 1011.7 |
| 20260510003505 | 67 | 325 | 1.0 | 2.0 | 0.00 | 0.00 | 0.00 | 87 | 1011.7 |
| 20260510003005 | 68 | 269 | 0.0 | 1.0 | 0.00 | 0.00 | 0.00 | 86 | 1011.7 |
| 20260510002005 | 68 | 269 | 0.0 | 1.0 | 0.00 | 0.00 | 0.00 | 85 | 1011.8 |
| 20260510001505 | 69 | 269 | 1.0 | 1.0 | 0.00 | 0.00 | 0.00 | 84 | 1011.8 |
| 20260510001005 | 69 | 269 | 1.0 | 1.0 | 0.00 | 0.00 | 0.00 | 83 | 1011.7 |
| 20260510000505 | 70 | 269 | 1.0 | 1.0 | 0.00 | 0.00 | 0.00 | 82 | 1011.7 |
| 20260510000005 | 70 | 269 | 0.0 | 0.0 | 0.00 | 0.00 | 0.00 | 82 | 1011.6 |
| 20260509235005 | 71 | 240 | 0.0 | 1.0 | 0.00 | 0.00 | 0.00 | 80 | 1011.4 |
| 20260509234505 | 72 | 184 | 0.0 | 1.0 | 0.00 | 0.00 | 0.00 | 79 | 1011.4 |
| 20260509234005 | 72 | 186 | 0.0 | 0.0 | 0.00 | 0.00 | 0.00 | 79 | 1010.9 |
| 20260509233505 | 72 | 186 | 0.0 | 1.0 | 0.00 | 0.00 | 0.00 | 77 | 1010.9 |
| 20260509233005 | 72 | 186 | 1.0 | 2.0 | 0.00 | 0.00 | 0.00 | 77 | 1010.9 |
| 20260509232504 | 73 | 195 | 1.0 | 2.0 | 0.00 | 0.00 | 0.00 | 76 | 1010.9 |
| 20260509231505 | 73 | 203 | 2.0 | 3.0 | 0.00 | 0.00 | 0.00 | 73 | 1010.9 |
| 20260509231005 | 73 | 204 | 2.0 | 5.0 | 0.00 | 0.00 | 0.00 | 73 | 1010.9 |
| 20260509230505 | 74 | 221 | 2.0 | 5.0 | 0.00 | 0.00 | 0.00 | 72 | 1010.9 |
| 20260509230005 | 74 | 224 | 1.0 | 3.0 | 0.00 | 0.00 | 0.00 | 72 | 1010.9 |
| 20260509225505 | 74 | 255 | 1.0 | 3.0 | 0.00 | 0.00 | 0.00 | 72 | 1010.9 |
| 20260509225005 | 74 | 213 | 2.0 | 3.0 | 0.00 | 0.00 | 0.00 | 72 | 1010.9 |
| 20260509224504 | 74 | 219 | 1.0 | 2.0 | 0.00 | 0.00 | 0.00 | 72 | 1010.9 |
| 20260509224005 | 74 | 249 | 2.0 | 5.0 | 0.00 | 0.00 | 0.00 | 72 | 1010.9 |
| 20260509223505 | 74 | 292 | 1.0 | 3.0 | 0.00 | 0.00 | 0.00 | 73 | 1010.9 |
| 20260509222505 | 73 | 241 | 2.0 | 6.0 | 0.00 | 0.00 | 0.00 | 72 | 1011.1 |
| 20260509222005 | 73 | 279 | 3.0 | 6.0 | 0.00 | 0.00 | 0.00 | 72 | 1011.1 |
| 20260509221504 | 73 | 254 | 2.0 | 6.0 | 0.00 | 0.00 | 0.00 | 72 | 1011.1 |
| 20260509221005 | 73 | 192 | 3.0 | 7.0 | 0.00 | 0.00 | 0.00 | 72 | 1011.0 |
| 20260509220504 | 74 | 228 | 2.0 | 6.0 | 0.00 | 0.00 | 0.00 | 72 | 1011.0 |
| 20260509220005 | 74 | 257 | 2.0 | 7.0 | 0.00 | 0.00 | 0.00 | 71 | 1011.0 |
| 20260509215005 | 74 | 201 | 4.0 | 13.0 | 0.00 | 0.00 | 0.00 | 71 | 1010.9 |
| 20260509214505 | 74 | 221 | 2.0 | 12.0 | 0.00 | 0.00 | 0.00 | 71 | 1010.9 |
| 20260509213005 | 73 | 243 | 6.0 | 10.0 | 0.00 | 0.00 | 0.00 | 71 | 1011.0 |
| 20260509212505 | 73 | 220 | 3.0 | 6.0 | 0.00 | 0.00 | 0.00 | 72 | 1011.0 |
| 20260509211505 | 72 | 206 | 3.0 | 7.0 | 0.00 | 0.00 | 0.00 | 73 | 1011.0 |
| 20260509210505 | 72 | 204 | 7.0 | 12.0 | 0.00 | 0.00 | 0.00 | 72 | 1010.9 |
| 20260509210004 | 72 | 215 | 6.0 | 15.0 | 0.00 | 0.00 | 0.00 | 72 | 1010.9 |
| 20260509205505 | 72 | 199 | 5.0 | 8.0 | 0.00 | 0.00 | 0.00 | 72 | 1010.9 |
| 20260509205005 | 72 | 219 | 7.0 | 12.0 | 0.00 | 0.00 | 0.00 | 71 | 1010.9 |
| 20260509204505 | 73 | 211 | 7.0 | 12.0 | 0.00 | 0.00 | 0.00 | 72 | 1010.9 |
| 20260509204005 | 73 | 198 | 6.0 | 10.0 | 0.00 | 0.00 | 0.00 | 71 | 1010.9 |
| 20260509203504 | 73 | 215 | 6.0 | 10.0 | 0.00 | 0.00 | 0.00 | 71 | 1010.9 |
| 20260509203005 | 73 | 185 | 3.0 | 8.0 | 0.00 | 0.00 | 0.00 | 70 | 1010.9 |
| 20260509202505 | 73 | 220 | 4.0 | 7.0 | 0.00 | 0.00 | 0.00 | 70 | 1011.0 |
| 20260509202005 | 73 | 205 | 3.0 | 7.0 | 0.00 | 0.00 | 0.00 | 70 | 1011.0 |
| 20260509201506 | 73 | 220 | 5.0 | 8.0 | 0.00 | 0.00 | 0.00 | 71 | 1011.0 |
| 20260509201005 | 72 | 242 | 6.0 | 13.0 | 0.00 | 0.00 | 0.00 | 71 | 1011.2 |
| 20260509200505 | 72 | 254 | 4.0 | 8.0 | 0.00 | 0.00 | 0.00 | 70 | 1011.2 |
| 20260509200005 | 73 | 224 | 5.0 | 12.0 | 0.00 | 0.00 | 0.00 | 69 | 1011.2 |